Location: Stara Lesna
(49.1528°N, 20.2911°E)
Time: 04:07:01
(UTC+02:00)

ADEOS - Pass Details

Date: 21 September 2019
Orbit: 792 x 794 km, 98.8° (Epoch: 22 October)

Event Time Altitude Azimuth Distance (km) Brightness Sun altitude
Rises 04:03:19 0° 18° (NNE) 3,305 7.5 -22.6°
Reaches altitude 10° 04:05:43 10° 24° (NNE) 2,371 6.8 -22.2°
Maximum altitude 04:10:49 51° 100° (E) 992 4.3 -21.5°
Enters shadow 04:15:45 11° 176° (S) 2,304 5.7 -20.8°
